Angoon, AK

6:58 AM AKST on December 06, 2019 (GMT -0900)
Angoon

Weather History for PAGN - May, 2019

Change the Weather History Date:

Monday, May 27, 2019

  Actual Average (WUND) Record (WUND)
Temperature  
Mean Temperature 56 °F -  
Max Temperature 68 °F - - (-1)
Min Temperature 46 °F - - (-1)
Degree Days  
Heating Degree Days 9    
Growing Degree Days 6 (Base 50)    
Moisture  
Dew Point 45 °F    
Average Humidity 72    
Maximum Humidity 93    
Minimum Humidity 39    
Precipitation  
Precipitation 0.00 in - - ()
Sea Level Pressure  
Sea Level Pressure 29.98 in    
Wind  
Wind Speed 1 mph (East)    
Max Wind Speed 6 mph    
Max Gust Speed -    
Visibility 9 miles    
Events      
Averages and records for this station are not official NWS values.
T = Trace of Precipitation, MM = Missing Value Source: NWS Daily Summary

Daily Weather History Graph

Daily Weather History Graph

Search for Another Location

Airport or City:

Astronomy

May. 27, 2019 Rise Set
Actual Time 4:16 AM AKDT 9:36 PM AKDT
Civil Twilight 3:15 AM AKDT 10:37 PM AKDT
Nautical Twilight 1:27 AM AKDT 12:23 AM AKDT
Astronomical Twilight Sun does not rise Sun does not rise
Moon 2:53 AM AKDT (5/27) 1:11 PM AKDT (5/27)
Length of Visible Light 19h 22m
Length of Day
17h 20m
Last Quarter, 39% of the Moon is Illuminated
May 27
Last Quarter
Jun 3
New
Jun 9
First Quarter
Jun 17
Full
Jun 25
Last Quarter

Hourly Weather History & Observations

Time (AKDT) Temp. Dew Point Humidity Pressure Visibility Wind Dir Wind Speed Gust Speed Precip Events Conditions
12:56 AM 50.0 °F 46.0 °F 86% 29.96 in 10.0 mi Calm Calm - N/A   Clear
1:56 AM 48.9 °F 46.0 °F 90% 29.96 in 10.0 mi Calm Calm - N/A   Clear
2:56 AM 48.0 °F 45.0 °F 89% 29.97 in 10.0 mi Calm Calm - N/A   Clear
3:56 AM 46.9 °F 44.1 °F 90% 29.97 in 10.0 mi Calm Calm - N/A   Clear
4:56 AM 46.0 °F 44.1 °F 93% 29.98 in 10.0 mi Calm Calm - N/A   Clear
5:51 AM 48.2 °F 44.6 °F 87% 30.02 in 1.8 mi Calm Calm - N/A   Clear
5:56 AM 48.0 °F 46.0 °F 93% 29.99 in 1.8 mi Calm Calm - N/A   Clear
5:59 AM 48.2 °F 44.6 °F 87% 30.02 in 4.0 mi Calm Calm - N/A   Clear
6:56 AM 50.0 °F 46.0 °F 86% 29.99 in 1.2 mi Calm Calm - N/A   Clear
7:09 AM 51.8 °F 46.4 °F 82% 30.03 in 10.0 mi Variable 3.5 mph - N/A   Clear
7:56 AM 53.1 °F 46.0 °F 77% 30.00 in 10.0 mi Calm Calm - N/A   Overcast
8:56 AM 53.1 °F 45.0 °F 74% 29.99 in 10.0 mi Calm Calm - N/A   Overcast
9:56 AM 54.0 °F 46.0 °F 75% 29.99 in 10.0 mi North 3.5 mph - N/A   Overcast
11:56 AM 57.0 °F 45.0 °F 64% 29.99 in 10.0 mi Calm Calm - N/A   Mostly Cloudy
12:56 PM 60.1 °F 43.0 °F 53% 29.99 in 10.0 mi Variable 4.6 mph - N/A   Clear
1:56 PM 64.0 °F 42.1 °F 45% 29.98 in 10.0 mi North 3.5 mph - N/A   Clear
2:56 PM 66.9 °F 41.0 °F 39% 29.97 in 10.0 mi Variable 3.5 mph - N/A   Clear
3:56 PM 64.0 °F 43.0 °F 46% 29.97 in 10.0 mi Variable 3.5 mph - N/A   Scattered Clouds
4:56 PM 64.0 °F 43.0 °F 46% 29.96 in 10.0 mi Variable 3.5 mph - N/A   Overcast
5:56 PM 62.1 °F 45.0 °F 53% 29.96 in 10.0 mi Calm Calm - N/A   Overcast
6:56 PM 61.0 °F 44.1 °F 54% 29.95 in 10.0 mi Calm Calm - N/A   Overcast
7:56 PM 59.0 °F 44.1 °F 58% 29.96 in 10.0 mi Variable 4.6 mph - N/A   Clear
8:56 PM 55.9 °F 46.9 °F 72% 29.96 in 10.0 mi SSE 4.6 mph - N/A   Scattered Clouds
9:56 PM 53.1 °F 46.9 °F 80% 29.99 in 10.0 mi Variable 3.5 mph - N/A   Partly Cloudy
10:56 PM 54.0 °F 48.0 °F 80% 30.00 in 10.0 mi South 5.8 mph - N/A   Overcast
11:56 PM 52.0 °F 48.0 °F 86% 30.01 in 10.0 mi Variable 5.8 mph - N/A   Clear